When you browse on this site, cookies collect data to enhance your experience and personalize the content and advertising you see.
Visit our Privacy Policy to learn more. By continuing to use the site, you agree to this use of cookies and data.
  • în România
  • Lista ţărilor
  • Pe 7 zile
  • Temperatura apei
  • Hartă satelitară
  • Meteo pe hartă
  • Widget-uri
  • user-avatar
    Intrare

    Meteo pe oră la Roschinskiy

    Astăzi, 21 Mai, Marţi

    Timp Temperatura Precipitaţii Vânt Presiune Umiditate
    00:00 +5°C° 0 mm 2 m/s 752 mmHg 72%
    01:00 +4°C° 0 mm 3 m/s 753 mmHg 74%
    02:00 +3°C° 0 mm 3 m/s 753 mmHg 76%
    03:00 +4°C° 0 mm 2 m/s 752 mmHg 82%
    04:00 +4°C° 0 mm 3 m/s 753 mmHg 79%
    05:00 +5°C° 0 mm 3 m/s 753 mmHg 76%
    06:00 +6°C° 0 mm 4 m/s 754 mmHg 73%
    07:00 +8°C° 0.1 mm 4 m/s 754 mmHg 65%
    08:00 +11°C° 0.1 mm 4 m/s 754 mmHg 57%
    09:00 +12°C° 0 mm 5 m/s 753 mmHg 49%
    10:00 +12°C° 0 mm 5 m/s 753 mmHg 47%
    11:00 +13°C° 0 mm 5 m/s 754 mmHg 46%
    12:00 +13°C° 0 mm 5 m/s 754 mmHg 44%
    13:00 +14°C° 0 mm 5 m/s 754 mmHg 44%
    14:00 +14°C° 0 mm 5 m/s 754 mmHg 43%
    15:00 +14°C° 0 mm 5 m/s 754 mmHg 43%
    16:00 +14°C° 0 mm 4 m/s 754 mmHg 47%
    17:00 +14°C° 0 mm 3 m/s 753 mmHg 50%
    18:00 +13°C° 0 mm 3 m/s 753 mmHg 54%
    19:00 +13°C° 0 mm 2 m/s 753 mmHg 57%
    20:00 +12°C° 0 mm 2 m/s 753 mmHg 59%
    21:00 +9°C° 0 mm 2 m/s 753 mmHg 62%
    22:00 +9°C° 0 mm 2 m/s 753 mmHg 63%
    23:00 +8°C° 0 mm 3 m/s 753 mmHg 63%

    Mâine, 22 Mai, Miercuri

    Timp Temperatura Precipitaţii Vânt Presiune Umiditate
    00:00 +8°C° 0 mm 3 m/s 754 mmHg 64%
    01:00 +8°C° 0 mm 3 m/s 753 mmHg 65%
    02:00 +7°C° 0 mm 3 m/s 753 mmHg 67%
    03:00 +7°C° 0 mm 3 m/s 753 mmHg 68%
    04:00 +8°C° 0 mm 3 m/s 753 mmHg 67%
    05:00 +9°C° 0 mm 3 m/s 753 mmHg 67%
    06:00 +10°C° 0 mm 3 m/s 753 mmHg 66%
    07:00 +12°C° 0.2 mm 2 m/s 752 mmHg 68%
    08:00 +12°C° 0.2 mm 2 m/s 752 mmHg 69%
    09:00 +13°C° 0.2 mm 1 m/s 752 mmHg 70%
    10:00 +12°C° 1.9 mm 2 m/s 752 mmHg 77%
    11:00 +12°C° 1.9 mm 2 m/s 751 mmHg 83%
    12:00 +10°C° 1.9 mm 3 m/s 751 mmHg 89%
    13:00 +11°C° 0.5 mm 3 m/s 751 mmHg 86%
    14:00 +12°C° 0.5 mm 3 m/s 750 mmHg 83%
    15:00 +13°C° 0.5 mm 3 m/s 750 mmHg 80%
    16:00 +14°C° 0.7 mm 2 m/s 750 mmHg 83%
    17:00 +14°C° 0.7 mm 2 m/s 749 mmHg 86%
    18:00 +15°C° 0.7 mm 1 m/s 749 mmHg 89%
    19:00 +14°C° 0.4 mm 1 m/s 749 mmHg 90%
    20:00 +14°C° 0.4 mm 2 m/s 749 mmHg 91%
    21:00 +14°C° 0.4 mm 2 m/s 749 mmHg 92%
    22:00 +13°C° 0 mm 2 m/s 749 mmHg 90%
    23:00 +12°C° 0 mm 3 m/s 748 mmHg 88%

    Poimâine, 23 Mai, Joi

    Timp Temperatura Precipitaţii Vânt Presiune Umiditate
    00:00 +12°C° 0 mm 4 m/s 748 mmHg 86%
    01:00 +12°C° 0 mm 4 m/s 748 mmHg 86%
    02:00 +11°C° 0 mm 4 m/s 748 mmHg 86%
    03:00 +11°C° 0 mm 4 m/s 747 mmHg 86%
    04:00 +12°C° 0 mm 4 m/s 747 mmHg 82%
    05:00 +13°C° 0 mm 4 m/s 747 mmHg 79%
    06:00 +14°C° 0 mm 4 m/s 747 mmHg 75%
    07:00 +15°C° 0 mm 5 m/s 747 mmHg 69%
    08:00 +16°C° 0 mm 6 m/s 747 mmHg 63%
    09:00 +19°C° 0 mm 6 m/s 746 mmHg 57%
    10:00 +20°C° 0 mm 7 m/s 746 mmHg 52%
    11:00 +21°C° 0 mm 7 m/s 746 mmHg 47%
    12:00 +22°C° 0 mm 7 m/s 745 mmHg 42%
    13:00 +22°C° 0 mm 7 m/s 745 mmHg 43%
    14:00 +22°C° 0 mm 7 m/s 745 mmHg 43%
    15:00 +22°C° 0 mm 7 m/s 744 mmHg 43%
    16:00 +21°C° 0 mm 6 m/s 744 mmHg 47%
    17:00 +20°C° 0 mm 5 m/s 743 mmHg 51%
    18:00 +19°C° 0 mm 5 m/s 743 mmHg 55%
    19:00 +18°C° 0 mm 4 m/s 743 mmHg 60%
    20:00 +17°C° 0 mm 4 m/s 742 mmHg 65%
    21:00 +15°C° 0 mm 4 m/s 742 mmHg 70%
    22:00 +14°C° 0 mm 4 m/s 742 mmHg 74%
    23:00 +14°C° 0 mm 5 m/s 742 mmHg 78%

    24 Mai, Vineri

    Timp Temperatura Precipitaţii Vânt Presiune Umiditate
    00:00 +14°C° 0 mm 5 m/s 741 mmHg 83%
    01:00 +13°C° 0.2 mm 5 m/s 741 mmHg 86%
    02:00 +13°C° 0.2 mm 4 m/s 741 mmHg 89%
    03:00 +13°C° 0.2 mm 4 m/s 741 mmHg 92%
    04:00 +12°C° 1.2 mm 5 m/s 742 mmHg 91%
    05:00 +12°C° 1.2 mm 5 m/s 742 mmHg 90%
    06:00 +10°C° 1.2 mm 6 m/s 743 mmHg 90%
    07:00 +11°C° 0.1 mm 6 m/s 743 mmHg 83%
    08:00 +11°C° 0.1 mm 6 m/s 744 mmHg 76%
    09:00 +13°C° 0.1 mm 6 m/s 744 mmHg 69%
    10:00 +13°C° 0 mm 6 m/s 745 mmHg 64%
    11:00 +14°C° 0 mm 6 m/s 745 mmHg 59%
    12:00 +14°C° 0 mm 6 m/s 746 mmHg 54%
    13:00 +14°C° 0 mm 6 m/s 746 mmHg 53%
    14:00 +14°C° 0 mm 6 m/s 747 mmHg 53%
    15:00 +15°C° 0 mm 6 m/s 747 mmHg 53%
    16:00 +14°C° 0 mm 5 m/s 747 mmHg 55%
    17:00 +13°C° 0 mm 5 m/s 748 mmHg 58%
    18:00 +13°C° 0 mm 4 m/s 748 mmHg 61%
    19:00 +11°C° 0 mm 4 m/s 749 mmHg 63%
    20:00 +10°C° 0 mm 3 m/s 749 mmHg 65%
    21:00 +8°C° 0 mm 3 m/s 750 mmHg 68%
    22:00 +8°C° 0 mm 3 m/s 750 mmHg 68%
    23:00 +7°C° 0 mm 2 m/s 751 mmHg 68%

    25 Mai, Sâmbătă

    Timp Temperatura Precipitaţii Vânt Presiune Umiditate
    00:00 +7°C° 0 mm 2 m/s 751 mmHg 69%
    01:00 +6°C° 0 mm 2 m/s 751 mmHg 69%
    02:00 +6°C° 0 mm 2 m/s 751 mmHg 70%
    03:00 +6°C° 0 mm 1 m/s 752 mmHg 70%
    04:00 +7°C° 0 mm 1 m/s 752 mmHg 67%
    05:00 +8°C° 0 mm 1 m/s 753 mmHg 65%
    06:00 +9°C° 0 mm 1 m/s 753 mmHg 62%
    07:00 +10°C° 0 mm 2 m/s 753 mmHg 55%
    08:00 +12°C° 0 mm 2 m/s 753 mmHg 49%
    09:00 +13°C° 0 mm 2 m/s 753 mmHg 43%
    10:00 +14°C° 0 mm 2 m/s 753 mmHg 42%
    11:00 +15°C° 0 mm 2 m/s 753 mmHg 41%
    12:00 +16°C° 0 mm 2 m/s 753 mmHg 39%
    13:00 +16°C° 0 mm 2 m/s 753 mmHg 39%
    14:00 +16°C° 0 mm 2 m/s 753 mmHg 38%
    15:00 +17°C° 0 mm 2 m/s 752 mmHg 38%
    16:00 +17°C° 0 mm 2 m/s 752 mmHg 42%
    17:00 +16°C° 0 mm 2 m/s 752 mmHg 46%
    18:00 +16°C° 0 mm 2 m/s 752 mmHg 50%
    19:00 +13°C° 0 mm 3 m/s 752 mmHg 53%
    20:00 +12°C° 0 mm 3 m/s 752 mmHg 56%
    21:00 +10°C° 0 mm 3 m/s 752 mmHg 59%
    22:00 +10°C° 0 mm 3 m/s 752 mmHg 60%
    23:00 +8°C° 0 mm 4 m/s 752 mmHg 62%

    26 Mai, Duminică

    Timp Temperatura Precipitaţii Vânt Presiune Umiditate
    00:00 +8°C° 0 mm 4 m/s 752 mmHg 63%
    01:00 +8°C° 0 mm 4 m/s 752 mmHg 63%
    02:00 +7°C° 0 mm 4 m/s 752 mmHg 64%
    03:00 +7°C° 0 mm 4 m/s 752 mmHg 65%
    04:00 +8°C° 0 mm 5 m/s 751 mmHg 64%
    05:00 +9°C° 0 mm 5 m/s 751 mmHg 63%
    06:00 +9°C° 0 mm 6 m/s 751 mmHg 62%
    07:00 +11°C° 0 mm 6 m/s 751 mmHg 59%
    08:00 +14°C° 0 mm 7 m/s 750 mmHg 55%
    09:00 +16°C° 0 mm 7 m/s 750 mmHg 52%
    10:00 +17°C° 0 mm 7 m/s 750 mmHg 50%
    11:00 +17°C° 0 mm 7 m/s 749 mmHg 49%
    12:00 +18°C° 0 mm 7 m/s 749 mmHg 48%
    13:00 +17°C° 0.2 mm 7 m/s 748 mmHg 54%
    14:00 +16°C° 0.2 mm 6 m/s 748 mmHg 61%
    15:00 +16°C° 0.2 mm 6 m/s 747 mmHg 67%
    16:00 +16°C° 0.1 mm 6 m/s 747 mmHg 67%
    17:00 +15°C° 0.1 mm 6 m/s 746 mmHg 66%
    18:00 +15°C° 0.1 mm 7 m/s 745 mmHg 66%
    19:00 +15°C° 0.1 mm 7 m/s 745 mmHg 66%
    20:00 +16°C° 0.1 mm 7 m/s 744 mmHg 66%
    21:00 +16°C° 0.1 mm 7 m/s 744 mmHg 66%
    22:00 +16°C° 0.2 mm 7 m/s 744 mmHg 70%
    23:00 +16°C° 0.2 mm 7 m/s 743 mmHg 73%
    Arată mai mult